When you browse on this site, cookies collect data to enhance your experience and personalize the content and advertising you see.
Visit our Privacy Policy to learn more. By continuing to use the site, you agree to this use of cookies and data.

Hourly Weather Churapcha

Today, 7 July, Tuesday

Time Temperature Precipitation Wind Pressure Humidity
00:00 +10°C° 0 mm 0 mps 738 mmHg 76%
01:00 +10°C° 0 mm 0 mps 738 mmHg 76%
02:00 +10°C° 0 mm 0 mps 739 mmHg 75%
03:00 +10°C° 0 mm 0 mps 739 mmHg 75%
04:00 +11°C° 0 mm 0 mps 739 mmHg 71%
05:00 +13°C° 0 mm 0 mps 739 mmHg 67%
06:00 +14°C° 0 mm 0 mps 739 mmHg 62%
07:00 +15°C° 0 mm 0 mps 739 mmHg 58%
08:00 +19°C° 0 mm 1 mps 739 mmHg 54%
09:00 +20°C° 0 mm 1 mps 739 mmHg 51%
10:00 +21°C° 0.2 mm 1 mps 739 mmHg 49%
11:00 +22°C° 0.2 mm 1 mps 739 mmHg 48%
12:00 +22°C° 0.2 mm 1 mps 739 mmHg 46%
13:00 +23°C° 0 mm 1 mps 738 mmHg 45%
14:00 +23°C° 0 mm 2 mps 738 mmHg 43%
15:00 +23°C° 0 mm 2 mps 738 mmHg 42%
16:00 +23°C° 0 mm 2 mps 738 mmHg 44%
17:00 +23°C° 0 mm 1 mps 738 mmHg 47%
18:00 +22°C° 0 mm 1 mps 737 mmHg 49%
19:00 +21°C° 0.2 mm 1 mps 737 mmHg 57%
20:00 +19°C° 0.2 mm 1 mps 737 mmHg 64%
21:00 +16°C° 0.2 mm 1 mps 737 mmHg 71%
22:00 +15°C° 0.2 mm 1 mps 737 mmHg 75%
23:00 +14°C° 0.2 mm 1 mps 737 mmHg 79%

Tomorrow, 8 July, Wednesday

Time Temperature Precipitation Wind Pressure Humidity
00:00 +13°C° 0.2 mm 1 mps 737 mmHg 83%
01:00 +12°C° 0 mm 1 mps 737 mmHg 85%
02:00 +12°C° 0 mm 1 mps 737 mmHg 87%
03:00 +11°C° 0 mm 1 mps 737 mmHg 88%
04:00 +12°C° 0 mm 1 mps 737 mmHg 86%
05:00 +13°C° 0 mm 1 mps 737 mmHg 84%
06:00 +15°C° 0 mm 1 mps 737 mmHg 82%
07:00 +18°C° 0.1 mm 1 mps 737 mmHg 75%
08:00 +20°C° 0.1 mm 1 mps 737 mmHg 68%
09:00 +21°C° 0.1 mm 1 mps 737 mmHg 61%
10:00 +22°C° 0.8 mm 1 mps 737 mmHg 59%
11:00 +22°C° 0.8 mm 1 mps 737 mmHg 58%
12:00 +23°C° 0.8 mm 2 mps 736 mmHg 56%
13:00 +24°C° 0 mm 2 mps 736 mmHg 50%
14:00 +25°C° 0 mm 1 mps 736 mmHg 44%
15:00 +26°C° 0 mm 1 mps 736 mmHg 38%
16:00 +25°C° 0 mm 1 mps 736 mmHg 41%
17:00 +24°C° 0 mm 1 mps 736 mmHg 44%
18:00 +23°C° 0 mm 1 mps 736 mmHg 47%
19:00 +22°C° 0 mm 1 mps 736 mmHg 53%
20:00 +20°C° 0 mm 1 mps 736 mmHg 59%
21:00 +19°C° 0 mm 1 mps 736 mmHg 65%
22:00 +16°C° 0.1 mm 1 mps 736 mmHg 70%
23:00 +15°C° 0.1 mm 1 mps 736 mmHg 75%

Day after tomorrow, 9 July, Thursday

Time Temperature Precipitation Wind Pressure Humidity
00:00 +14°C° 0.1 mm 1 mps 736 mmHg 80%
01:00 +14°C° 0 mm 1 mps 736 mmHg 81%
02:00 +13°C° 0 mm 1 mps 736 mmHg 82%
03:00 +13°C° 0 mm 1 mps 736 mmHg 83%
04:00 +14°C° 0 mm 1 mps 737 mmHg 80%
05:00 +16°C° 0 mm 1 mps 737 mmHg 76%
06:00 +17°C° 0 mm 2 mps 737 mmHg 72%
07:00 +19°C° 0 mm 2 mps 737 mmHg 64%
08:00 +21°C° 0 mm 2 mps 737 mmHg 56%
09:00 +24°C° 0 mm 2 mps 737 mmHg 49%
10:00 +25°C° 0 mm 3 mps 737 mmHg 45%
11:00 +25°C° 0 mm 3 mps 737 mmHg 42%
12:00 +26°C° 0 mm 3 mps 737 mmHg 38%
13:00 +26°C° 0 mm 3 mps 737 mmHg 38%
14:00 +26°C° 0 mm 2 mps 736 mmHg 37%
15:00 +26°C° 0 mm 2 mps 736 mmHg 37%
16:00 +26°C° 0 mm 2 mps 736 mmHg 39%
17:00 +26°C° 0 mm 3 mps 736 mmHg 42%
18:00 +26°C° 0 mm 3 mps 736 mmHg 45%
19:00 +24°C° 0 mm 3 mps 736 mmHg 53%
20:00 +22°C° 0 mm 3 mps 736 mmHg 61%
21:00 +20°C° 0 mm 3 mps 736 mmHg 69%
22:00 +20°C° 0 mm 3 mps 736 mmHg 68%
23:00 +20°C° 0 mm 3 mps 736 mmHg 66%

10 July, Friday

Time Temperature Precipitation Wind Pressure Humidity
00:00 +20°C° 0 mm 3 mps 736 mmHg 65%
01:00 +19°C° 0 mm 4 mps 736 mmHg 65%
02:00 +19°C° 0 mm 4 mps 736 mmHg 65%
03:00 +19°C° 0 mm 4 mps 736 mmHg 65%
04:00 +18°C° 0.4 mm 4 mps 736 mmHg 73%
05:00 +17°C° 0.4 mm 4 mps 736 mmHg 80%
06:00 +17°C° 0.4 mm 4 mps 736 mmHg 88%
07:00 +15°C° 1.7 mm 4 mps 736 mmHg 90%
08:00 +15°C° 1.7 mm 5 mps 736 mmHg 92%
09:00 +15°C° 1.7 mm 5 mps 736 mmHg 94%
10:00 +15°C° 0.8 mm 5 mps 736 mmHg 95%
11:00 +15°C° 0.8 mm 5 mps 736 mmHg 95%
12:00 +15°C° 0.8 mm 5 mps 737 mmHg 96%
13:00 +15°C° 0.4 mm 5 mps 736 mmHg 95%
14:00 +16°C° 0.4 mm 5 mps 736 mmHg 95%
15:00 +16°C° 0.4 mm 5 mps 736 mmHg 94%
16:00 +17°C° 0.9 mm 5 mps 737 mmHg 93%
17:00 +18°C° 0.9 mm 4 mps 737 mmHg 93%
18:00 +19°C° 0.9 mm 3 mps 737 mmHg 92%
19:00 +18°C° 0.4 mm 4 mps 737 mmHg 93%
20:00 +17°C° 0.4 mm 4 mps 738 mmHg 94%
21:00 +17°C° 0.4 mm 4 mps 738 mmHg 95%
22:00 +15°C° 0 mm 4 mps 738 mmHg 96%
23:00 +14°C° 0 mm 3 mps 738 mmHg 96%

11 July, Saturday

Time Temperature Precipitation Wind Pressure Humidity
00:00 +13°C° 0 mm 3 mps 738 mmHg 97%
01:00 +13°C° 0 mm 3 mps 739 mmHg 97%
02:00 +12°C° 0 mm 3 mps 739 mmHg 98%
03:00 +12°C° 0 mm 3 mps 739 mmHg 98%
04:00 +14°C° 0 mm 2 mps 739 mmHg 97%
05:00 +14°C° 0 mm 2 mps 740 mmHg 95%
06:00 +15°C° 0 mm 2 mps 740 mmHg 94%
07:00 +16°C° 0 mm 2 mps 740 mmHg 88%
08:00 +18°C° 0 mm 2 mps 740 mmHg 83%
09:00 +19°C° 0 mm 2 mps 741 mmHg 78%
10:00 +21°C° 0 mm 2 mps 741 mmHg 72%
11:00 +24°C° 0 mm 2 mps 741 mmHg 66%
12:00 +26°C° 0 mm 2 mps 741 mmHg 60%
13:00 +27°C° 0 mm 2 mps 741 mmHg 57%
14:00 +28°C° 0 mm 1 mps 741 mmHg 55%
15:00 +30°C° 0 mm 1 mps 740 mmHg 52%
16:00 +29°C° 0 mm 1 mps 741 mmHg 53%
17:00 +29°C° 0 mm 1 mps 741 mmHg 55%
18:00 +29°C° 0 mm 1 mps 741 mmHg 56%
19:00 +27°C° 0 mm 2 mps 741 mmHg 65%
20:00 +25°C° 0 mm 2 mps 741 mmHg 74%
21:00 +23°C° 0 mm 2 mps 741 mmHg 83%
22:00 +21°C° 0 mm 2 mps 741 mmHg 87%
23:00 +20°C° 0 mm 2 mps 741 mmHg 92%

12 July, Sunday

Time Temperature Precipitation Wind Pressure Humidity
00:00 +19°C° 0 mm 2 mps 742 mmHg 96%
01:00 +19°C° 0 mm 2 mps 742 mmHg 96%
02:00 +18°C° 0 mm 2 mps 742 mmHg 96%
03:00 +18°C° 0 mm 2 mps 742 mmHg 97%
04:00 +19°C° 0 mm 2 mps 742 mmHg 92%
05:00 +20°C° 0 mm 2 mps 742 mmHg 87%
06:00 +20°C° 0 mm 2 mps 742 mmHg 83%
07:00 +23°C° 0 mm 2 mps 742 mmHg 76%
08:00 +25°C° 0 mm 3 mps 742 mmHg 69%
09:00 +27°C° 0 mm 3 mps 742 mmHg 63%
10:00 +28°C° 0 mm 3 mps 742 mmHg 58%
11:00 +30°C° 0 mm 2 mps 742 mmHg 54%
12:00 +31°C° 0 mm 2 mps 742 mmHg 50%
13:00 +32°C° 0 mm 2 mps 742 mmHg 47%
14:00 +34°C° 0 mm 2 mps 741 mmHg 45%
15:00 +34°C° 0 mm 1 mps 741 mmHg 42%
16:00 +34°C° 0 mm 1 mps 741 mmHg 43%
17:00 +34°C° 0 mm 1 mps 741 mmHg 44%
18:00 +33°C° 0 mm 1 mps 741 mmHg 46%
19:00 +31°C° 0 mm 2 mps 741 mmHg 55%
20:00 +29°C° 0 mm 2 mps 741 mmHg 64%
21:00 +27°C° 0 mm 2 mps 741 mmHg 74%
22:00 +25°C° 0 mm 2 mps 741 mmHg 77%
23:00 +24°C° 0 mm 2 mps 741 mmHg 80%
Show more